Total_Precipitation_Accumulation
1.52 1.42 1.05 0.62 0.45 0.39 0.40 0.40 0.35 0.37 0.33 0.37 0.36 0.35 0.35 0.38 0.43 0.43 0.41 0.43 0.52 0.67 0.81 0.87 1.03 1.19 1.29 1.48 1.61 1.65 1.58 1.50 1.50 1.61 1.67 1.67 1.55 1.45 1.33 1.19 1.11 1.09 0.97 0.91
1.45 1.08 0.61 0.42 0.45 0.46 0.45 0.46 0.37 0.37 0.37 0.44 0.45 0.39 0.36 0.41 0.46 0.44 0.43 0.42 0.47 0.60 0.72 0.84 0.98 1.10 1.23 1.39 1.49 1.66 1.66 1.56 1.49 1.46 1.56 1.73 1.84 1.78 1.70 1.58 1.36 1.24 1.16 1.08
1.13 0.71 0.53 0.56 0.61 0.59 0.45 0.40 0.37 0.41 0.44 0.49 0.48 0.49 0.44 0.47 0.42 0.46 0.50 0.50 0.51 0.53 0.67 0.81 0.97 1.07 1.16 1.33 1.43 1.51 1.59 1.59 1.59 1.67 1.86 1.97 2.03 1.88 1.71 1.54 1.40 1.31 1.27 1.24
1.00 0.62 0.65 0.72 0.67 0.59 0.52 0.29 0.32 0.44 0.57 0.65 0.57 0.71 0.58 0.50 0.42 0.45 0.50 0.51 0.54 0.57 0.69 0.81 0.89 1.03 1.14 1.20 1.31 1.40 1.49 1.58 1.61 1.78 1.89 1.88 1.77 1.65 1.52 1.47 1.46 1.43 1.34 1.32
1.03 0.70 0.75 0.81 0.60 0.55 0.50 0.30 0.35 0.50 0.63 0.65 0.48 0.56 0.56 0.40 0.40 0.42 0.44 0.45 0.49 0.56 0.63 0.69 0.75 0.86 0.97 1.04 1.14 1.28 1.35 1.43 1.51 1.66 1.73 1.86 1.79 1.64 1.61 1.59 1.48 1.42 1.35 1.33
0.78 0.69 0.83 0.77 0.53 0.56 0.54 0.54 0.59 0.66 0.89 0.88 0.41 0.44 0.53 0.42 0.41 0.42 0.42 0.44 0.47 0.51 0.57 0.60 0.62 0.70 0.81 0.87 0.94 1.09 1.24 1.27 1.36 1.50 1.58 1.57 1.59 1.51 1.51 1.54 1.46 1.39 1.34 1.28
1.15 0.94 0.81 0.77 0.79 0.80 0.81 1.05 1.33 1.29 1.18 0.73 0.28 0.33 0.44 0.34 0.35 0.41 0.40 0.39 0.39 0.41 0.46 0.49 0.46 0.55 0.68 0.76 0.81 0.92 1.08 1.13 1.19 1.31 1.44 1.49 1.53 1.53 1.48 1.41 1.42 1.39 1.31 1.16
1.18 1.12 0.79 0.81 0.89 0.95 0.84 0.93 1.07 0.92 0.59 0.34 0.23 0.30 0.31 0.23 0.26 0.29 0.30 0.30 0.33 0.37 0.40 0.42 0.42 0.47 0.57 0.65 0.72 0.77 0.89 0.97 1.05 1.11 1.22 1.37 1.42 1.45 1.44 1.38 1.37 1.38 1.31 1.22
0.77 0.85 0.56 0.57 0.59 0.66 0.83 0.81 0.64 0.79 0.53 0.36 0.27 0.25 0.23 0.16 0.18 0.21 0.24 0.25 0.30 0.35 0.36 0.41 0.41 0.45 0.50 0.55 0.61 0.64 0.70 0.82 0.88 0.91 1.02 1.13 1.19 1.19 1.21 1.20 1.21 1.24 1.24 1.16
0.63 0.81 0.58 0.57 0.74 0.71 0.72 0.67 0.79 1.14 0.89 0.51 0.26 0.20 0.25 0.18 0.18 0.19 0.22 0.26 0.30 0.32 0.33 0.37 0.42 0.45 0.46 0.48 0.50 0.53 0.60 0.71 0.79 0.81 0.84 0.89 0.95 1.02 1.01 0.99 1.00 1.04 1.06 1.03
0.57 0.84 0.74 0.75 0.91 0.69 0.66 0.76 0.85 0.86 0.69 0.62 0.37 0.25 0.24 0.22 0.19 0.19 0.21 0.26 0.29 0.30 0.31 0.35 0.39 0.44 0.47 0.51 0.53 0.53 0.54 0.60 0.70 0.71 0.68 0.68 0.74 0.84 0.88 0.88 0.86 0.87 0.91 0.95
0.53 0.82 0.74 0.58 0.50 0.40 0.51 0.54 0.64 0.86 0.62 0.48 0.41 0.28 0.18 0.17 0.20 0.22 0.23 0.27 0.26 0.25 0.27 0.31 0.35 0.41 0.44 0.48 0.54 0.57 0.56 0.58 0.65 0.65 0.63 0.60 0.58 0.66 0.71 0.69 0.69 0.72 0.73 0.77
0.56 0.88 0.89 0.68 0.63 0.58 0.59 0.44 0.46 0.72 0.92 0.68 0.53 0.30 0.14 0.12 0.16 0.21 0.24 0.26 0.23 0.22 0.23 0.24 0.28 0.35 0.40 0.45 0.49 0.51 0.52 0.54 0.59 0.58 0.58 0.61 0.57 0.59 0.64 0.62 0.58 0.60 0.60 0.60
0.77 0.89 0.79 0.70 0.59 0.58 0.56 0.41 0.48 0.98 1.19 0.61 0.33 0.25 0.18 0.16 0.18 0.22 0.26 0.28 0.24 0.23 0.25 0.25 0.27 0.32 0.36 0.40 0.44 0.45 0.47 0.51 0.54 0.53 0.53 0.55 0.56 0.55 0.60 0.58 0.51 0.52 0.52 0.51
0.75 0.92 0.65 0.44 0.36 0.46 0.47 0.43 0.52 0.80 0.73 0.62 0.32 0.25 0.26 0.26 0.26 0.25 0.25 0.25 0.22 0.22 0.24 0.26 0.28 0.31 0.31 0.32 0.35 0.36 0.37 0.40 0.45 0.47 0.48 0.53 0.54 0.53 0.58 0.60 0.53 0.52 0.52 0.49
0.50 0.72 0.63 0.47 0.33 0.40 0.43 0.40 0.45 0.51 0.47 0.45 0.36 0.33 0.23 0.23 0.22 0.24 0.24 0.23 0.24 0.21 0.22 0.24 0.27 0.28 0.27 0.29 0.32 0.32 0.33 0.36 0.41 0.44 0.46 0.48 0.48 0.48 0.52 0.55 0.54 0.54 0.56 0.55
0.31 0.52 0.70 0.56 0.37 0.47 0.56 0.45 0.44 0.42 0.33 0.34 0.38 0.28 0.19 0.22 0.23 0.21 0.18 0.17 0.18 0.17 0.17 0.19 0.21 0.25 0.26 0.24 0.27 0.31 0.35 0.38 0.42 0.46 0.46 0.47 0.47 0.46 0.45 0.46 0.50 0.58 0.64 0.66
0.16 0.36 0.63 0.51 0.44 0.57 0.47 0.33 0.32 0.31 0.27 0.25 0.25 0.17 0.17 0.20 0.21 0.19 0.15 0.12 0.10 0.11 0.11 0.12 0.15 0.19 0.24 0.23 0.24 0.26 0.26 0.29 0.35 0.40 0.40 0.41 0.46 0.49 0.49 0.53 0.61 0.71 0.79 0.84
0.09 0.29 0.55 0.46 0.36 0.26 0.17 0.14 0.17 0.23 0.24 0.18 0.17 0.14 0.13 0.15 0.20 0.20 0.18 0.16 0.11 0.09 0.10 0.09 0.09 0.13 0.17 0.19 0.21 0.22 0.23 0.25 0.28 0.34 0.37 0.37 0.44 0.56 0.66 0.73 0.83 0.89 0.97 1.02
0.09 0.22 0.49 0.41 0.36 0.19 0.10 0.04 0.04 0.12 0.21 0.09 0.09 0.12 0.13 0.15 0.18 0.17 0.14 0.12 0.11 0.10 0.10 0.10 0.08 0.08 0.11 0.13 0.17 0.19 0.22 0.26 0.33 0.40 0.46 0.50 0.57 0.71 0.82 0.87 0.92 0.91 0.91 0.92
0.19 0.30 0.39 0.33 0.31 0.11 0.04 0.02 0.03 0.16 0.20 0.04 0.04 0.08 0.12 0.13 0.14 0.11 0.09 0.09 0.09 0.10 0.12 0.14 0.15 0.16 0.18 0.19 0.24 0.30 0.34 0.41 0.47 0.49 0.57 0.65 0.65 0.67 0.68 0.69 0.69 0.64 0.59 0.56
0.10 0.17 0.18 0.19 0.25 0.14 0.04 0.03 0.06 0.11 0.07 0.03 0.03 0.05 0.08 0.10 0.10 0.10 0.09 0.07 0.07 0.09 0.11 0.14 0.21 0.28 0.32 0.34 0.42 0.48 0.50 0.53 0.53 0.53 0.56 0.58 0.59 0.57 0.53 0.48 0.41 0.35 0.31 0.29
0.07 0.09 0.11 0.13 0.14 0.09 0.05 0.05 0.05 0.04 0.05 0.04 0.04 0.04 0.05 0.08 0.09 0.09 0.09 0.07 0.05 0.05 0.06 0.10 0.15 0.20 0.26 0.30 0.34 0.40 0.40 0.39 0.40 0.40 0.42 0.41 0.39 0.36 0.34 0.30 0.27 0.24 0.21 0.20
0.08 0.05 0.07 0.08 0.07 0.05 0.04 0.04 0.04 0.04 0.04 0.04 0.04 0.05 0.05 0.05 0.05 0.05 0.05 0.05 0.05 0.04 0.04 0.05 0.06 0.07 0.09 0.11 0.16 0.19 0.17 0.17 0.18 0.20 0.23 0.23 0.22 0.20 0.21 0.20 0.20 0.19 0.19 0.18
0.09 0.08 0.09 0.08 0.05 0.04 0.04 0.04 0.03 0.03 0.03 0.03 0.04 0.05 0.06 0.06 0.06 0.06 0.05 0.05 0.05 0.05 0.05 0.05 0.06 0.07 0.07 0.07 0.08 0.09 0.09 0.09 0.09 0.10 0.12 0.14 0.14 0.14 0.15 0.16 0.17 0.19 0.19 0.20
0.03 0.05 0.09 0.09 0.04 0.05 0.05 0.03 0.02 0.02 0.01 0.01 0.02 0.04 0.04 0.04 0.05 0.06 0.06 0.05 0.05 0.05 0.05 0.06 0.07 0.07 0.08 0.08 0.07 0.07 0.08 0.09 0.10 0.11 0.11 0.12 0.12 0.13 0.14 0.15 0.16 0.18 0.19 0.22